GFSSGP_con_lsi_018.txt.gz
Lid_Strength_Index
3 6 7 9 14 14 16 14 10 10 10 7 6 7 9 8 9 12 2 0 0 0 -0 -1 -1 -1 -1 -2 -1 -1 -1 -1 -1 -1 -2 -2 -2 -2 -2 -2 -2 -2 -2 -2 -2 -2 -2 -2 -2
7 7 9 11 15 17 16 10 11 9 7 6 6 6 8 9 5 4 3 0 -0 -0 -0 -0 -1 -1 -1 -1 -1 -1 -1 -1 -1 -1 -2 -2 -2 -2 -2 -2 -2 -2 -2 -2 -2 -2 -2 -2 -2
6 7 11 13 16 17 15 9 9 7 6 6 7 5 6 8 4 3 1 0 -0 0 -0 -0 -1 -1 -1 -1 -1 -1 -1 -1 -1 -2 -2 -2 -2 -2 -2 -2 -2 -2 -2 -2 -2 -2 -2 -2 -2
8 9 12 13 15 14 12 8 7 7 6 5 6 8 5 3 3 2 0 -0 0 0 0 0 -0 -1 -1 -1 -1 -1 -1 -1 -1 -2 -2 -2 -2 -2 -2 -2 -2 -2 -2 -2 -2 -2 -2 -2 -2
9 12 15 16 15 13 10 7 7 8 7 7 6 8 7 3 1 1 1 0 1 -0 0 -0 0 -1 -1 -1 -1 -1 -1 -1 -2 -2 -2 -2 -2 -2 -2 -2 -2 -2 -2 -2 -2 -2 -2 -2 -3
11 13 16 16 15 9 9 7 7 7 7 7 7 7 7 2 2 1 0 0 -0 0 -0 -0 -1 -1 -1 -1 -1 -1 -1 -2 -2 -2 -2 -2 -2 -2 -2 -2 -2 -2 -2 -2 -2 -2 -2 -2 -3
12 14 16 14 12 10 9 6 7 7 7 7 6 9 6 4 2 1 1 0 -0 -0 -0 -0 -0 -0 -0 -0 -0 -1 -1 -2 -2 -2 -2 -2 -2 -2 -2 -2 -2 -2 -3 -3 -3 -2 -3 -2 -3
11 13 14 14 11 11 7 9 6 7 8 5 5 9 8 4 1 1 1 1 0 1 1 1 0 1 1 1 -0 -1 -1 -1 -2 -2 -2 -2 -2 -2 -2 -2 -2 -2 -2 -2 -2 -2 -2 -2 -2
11 13 15 13 10 10 6 8 9 6 6 5 6 6 4 2 2 2 2 3 2 2 2 2 2 1 1 1 -0 -1 -2 -1 -1 -2 -1 -1 0 0 -0 -1 -2 -2 -2 -2 -2 -2 -2 -2 -1
11 13 13 11 9 8 6 8 6 7 7 7 7 4 3 3 3 3 3 3 3 3 3 2 2 1 1 -0 0 0 -0 -0 -0 -0 -0 0 1 1 0 -1 -1 -1 -1 -2 -2 -2 -2 -1 0
12 12 12 11 8 6 8 8 8 7 10 7 7 6 4 4 4 4 3 3 3 2 2 1 0 1 1 1 1 1 0 1 1 1 1 1 1 1 1 1 1 1 -1 1 0 1 1 2 2
12 10 10 10 9 10 10 10 7 8 7 5 5 4 4 4 4 4 4 3 3 2 1 1 0 0 1 1 0 1 1 1 1 1 1 1 2 2 1 2 3 3 3 2 3 3 2 2 2
10 10 10 10 10 11 10 10 7 10 6 5 4 4 4 4 4 3 2 2 3 2 2 1 1 1 1 1 1 1 1 1 1 1 2 2 3 3 3 3 3 3 3 3 3 3 3 3 3
9 10 10 10 11 12 11 10 9 9 6 6 5 5 4 4 4 4 3 3 2 2 2 2 1 1 2 2 1 2 2 2 2 3 3 2 3 3 2 3 4 4 4 4 3 4 4 5 4
10 11 10 10 11 11 9 11 12 7 6 6 6 5 6 6 6 5 5 4 3 2 2 2 2 2 2 2 2 2 2 2 3 4 3 2 2 3 4 5 5 5 4 4 5 5 5 5 5
11 11 13 11 10 10 10 14 10 7 6 7 6 6 6 6 5 5 5 4 2 2 2 1 2 2 2 2 2 2 3 3 3 4 3 4 4 5 5 5 5 5 5 4 5 5 6 6 6
13 15 14 12 10 10 11 14 11 10 7 7 8 8 6 5 4 3 3 4 2 2 2 2 2 2 1 2 2 3 3 5 5 5 4 4 4 4 4 4 4 4 5 6 6 6 6 6 6
15 15 15 14 12 11 12 12 10 8 10 9 9 8 7 7 5 3 3 3 3 3 2 2 2 2 2 3 4 4 4 5 4 3 4 5 4 4 4 4 5 6 6 6 7 7 6 6 6
11 13 14 14 11 11 12 11 10 8 9 9 9 9 8 8 6 4 4 4 4 3 2 2 2 2 2 5 5 5 5 4 4 5 4 4 5 6 7 7 6 6 7 7 7 7 7 7 6
11 13 13 12 11 10 11 12 10 8 8 8 8 8 7 8 7 6 6 6 5 4 4 3 3 4 5 4 5 4 4 5 4 5 6 6 6 6 6 6 7 7 7 7 7 7 7 7 7
11 12 13 13 11 11 12 13 12 9 8 8 9 8 8 8 7 6 5 6 6 7 6 6 5 5 4 3 5 5 5 5 5 7 8 7 6 6 6 6 7 7 7 7 7 8 8 9 8
13 10 11 12 13 15 13 17 13 11 10 9 9 9 8 7 7 6 7 8 7 8 7 7 6 6 6 5 5 5 6 7 7 8 8 7 6 6 6 6 7 7 7 8 7 8 8 8 9
11 10 11 12 14 15 14 15 15 11 12 10 10 9 9 8 8 7 7 8 8 8 8 7 6 6 6 6 6 7 7 7 7 8 7 7 7 6 5 6 7 8 8 8 8 9 9 9 9
9 10 11 12 13 17 15 15 15 13 11 10 9 8 8 8 8 8 8 7 7 7 7 7 7 7 7 7 7 7 7 7 8 8 8 7 7 7 7 7 8 8 8 8 9 9 9 9 8
10 13 17 19 19 19 13 15 14 11 10 9 9 8 8 8 8 8 8 7 7 7 7 7 7 7 7 7 7 7 7 8 8 8 8 8 8 8 8 8 8 8 8 8 8 9 9 9 9
12 13 17 20 21 18 14 17 14 11 9 8 8 8 8 8 8 8 8 8 8 7 8 8 7 7 7 7 7 7 7 7 7 8 8 8 8 8 8 8 8 8 8 8 7 7 7 7 6
12 14 12 16 17 19 16 14 11 10 10 9 9 9 9 9 9 8 8 8 8 7 7 7 7 7 7 7 7 7 7 8 7 8 8 8 8 8 8 8 8 8 8 7 7 7 6 6 4
11 10 14 16 19 19 17 16 15 12 10 10 10 10 10 9 9 8 8 8 8 8 7 6 6 7 7 7 7 7 8 8 8 8 9 9 9 8 8 8 8 8 7 7 7 6 5 5 5
12 13 13 13 16 19 21 17 12 10 9 10 10 10 9 9 8 8 8 8 8 8 7 8 9 8 8 9 9 9 9 9 9 9 9 9 9 8 8 8 8 7 6 7 7 6 6 5 6
11 12 13 17 16 17 18 17 11 10 10 10 10 9 9 9 9 9 8 8 8 8 9 10 10 10 10 10 10 10 9 9 9 9 9 9 9 8 8 8 6 6 6 6 7 6 6 6 7

GFSSGP_con_lsi_021.txt.gz
Lid_Strength_Index
0 4 4 5 9 10 12 12 7 9 9 6 5 7 8 7 9 12 1 0 -0 -0 -1 -1 -1 -1 -2 -2 -2 -2 -2 -2 -2 -2 -2 -2 -2 -2 -2 -2 -3 -3 -2 -2 -2 -2 -2 -2 -2
5 5 5 7 10 12 12 8 10 9 7 6 6 6 7 9 5 4 3 0 -0 -0 -1 -1 -1 -1 -1 -1 -1 -1 -2 -2 -2 -2 -2 -2 -2 -2 -2 -2 -3 -3 -2 -2 -2 -2 -2 -2 -2
4 5 7 9 11 13 12 9 9 7 5 6 7 5 7 7 4 3 1 -0 -0 -0 -1 -1 -1 -1 -1 -1 -1 -1 -1 -2 -2 -2 -2 -2 -2 -2 -2 -2 -3 -3 -2 -2 -2 -2 -2 -2 -2
4 5 8 10 12 11 10 8 7 7 6 5 6 7 5 3 3 2 0 -0 -0 -1 -1 -1 -0 -1 -1 -1 -1 -1 -1 -1 -2 -2 -2 -2 -2 -2 -2 -2 -3 -2 -2 -2 -2 -2 -2 -2 -3
6 7 10 11 12 10 9 6 6 7 7 6 6 7 7 3 1 1 0 -0 0 -0 -1 -1 -0 -1 -1 -1 -1 -1 -1 -2 -2 -2 -2 -2 -2 -2 -2 -3 -3 -2 -2 -2 -2 -2 -2 -2 -3
6 8 11 12 10 8 7 6 6 6 6 6 7 7 7 2 2 1 0 0 -0 -0 -1 -1 -1 -1 -1 -1 -1 -1 -1 -2 -2 -2 -2 -2 -2 -2 -2 -2 -2 -2 -2 -2 -2 -2 -2 -2 -2
7 9 11 11 10 9 7 5 7 7 7 7 5 9 6 4 2 1 0 -0 -0 -1 -1 -1 -1 -1 -0 -0 -1 -1 -1 -2 -2 -2 -2 -2 -3 -2 -2 -2 -2 -2 -2 -2 -2 -2 -2 -2 -2
7 8 12 10 10 10 8 6 5 6 7 4 4 8 8 4 1 1 0 0 0 -0 -0 -0 -1 -1 -1 -1 -0 -1 -1 -2 -2 -2 -2 -2 -2 -2 -2 -2 -2 -2 -2 -2 -2 -2 -2 -2 -3
7 9 12 10 9 9 5 6 5 4 6 5 5 5 4 2 1 2 2 1 1 1 1 0 -1 -1 -1 -1 -1 -1 -2 -2 -2 -2 -2 -1 -2 -2 -1 -2 -2 -2 -2 -2 -2 -2 -2 -2 -2
7 10 10 8 7 8 7 6 6 6 6 6 6 4 3 2 3 3 3 3 2 2 1 1 -0 -0 -1 -1 -1 -2 -1 -2 -2 -2 -2 -2 -2 -2 -2 -1 -1 -2 -2 -2 -2 -2 -2 -2 -2
9 9 9 9 6 6 6 6 5 7 8 6 7 6 4 3 3 3 3 2 2 1 1 -0 -0 -1 -1 -1 -1 -1 -2 -2 -2 -2 -2 -2 -2 -2 -2 -2 -2 -2 -1 -1 -1 -1 -1 -1 -1
9 8 8 8 7 6 7 6 7 6 6 4 4 4 4 4 4 3 3 2 2 1 1 -0 -1 -1 -1 -1 -1 -1 -1 -1 -1 -2 -2 -2 -2 -2 -2 -2 -1 -1 -1 -1 -1 -1 -1 -1 0
9 8 9 8 9 7 7 7 6 6 4 4 4 4 4 4 3 3 2 2 1 1 1 -0 -1 -1 -1 -1 -1 -1 -1 -1 -1 -1 -1 -2 -1 -1 -2 -1 -1 -1 -1 -0 -0 0 1 1 1
7 9 9 9 9 9 8 9 5 7 4 5 5 5 4 4 3 3 2 2 2 1 1 -0 -0 -1 -1 -1 -1 -1 -1 -1 -1 -0 0 -0 -1 -1 -1 0 1 0 0 0 0 1 2 2 2
9 9 8 9 9 9 8 9 8 5 4 6 5 5 4 3 3 3 2 2 1 1 0 0 -0 -1 -0 0 -0 0 1 1 0 0 1 0 -1 0 1 1 1 1 1 1 1 2 2 2 2
9 9 10 8 8 9 8 10 8 6 5 6 5 5 4 4 3 2 2 1 1 1 1 -0 0 0 0 0 0 0 1 1 1 1 1 1 1 1 1 2 1 1 2 2 3 3 3 3 3
9 11 11 9 8 7 7 10 7 7 6 6 6 5 5 4 3 2 2 1 1 1 1 1 0 -0 -0 0 1 2 2 3 3 2 2 1 1 1 2 3 3 2 3 3 3 3 3 4 4
11 11 11 10 8 7 9 10 8 6 6 7 6 6 5 5 4 3 2 1 1 0 0 1 0 1 1 2 3 3 2 2 2 2 3 2 2 2 2 3 3 3 3 3 2 3 3 4 4
10 11 11 10 9 9 10 10 9 7 7 7 7 6 6 5 4 3 2 1 1 1 1 1 1 1 2 3 3 2 2 2 3 3 3 3 3 3 3 3 3 2 3 3 3 3 4 4 3
9 10 11 10 9 9 10 11 9 8 8 7 7 6 6 5 4 3 2 2 1 1 1 1 1 0 2 1 1 -0 1 1 3 3 3 3 3 3 3 2 2 3 3 3 4 4 5 4 4
10 10 11 10 9 8 9 11 10 8 7 7 6 5 5 5 5 4 3 2 2 2 1 1 2 1 1 1 2 2 1 2 2 4 4 3 3 3 3 3 3 3 3 4 4 4 5 7 5
11 9 9 10 10 13 10 13 11 10 9 8 7 6 6 5 4 4 4 4 4 4 3 2 2 3 3 3 2 2 2 3 4 4 3 3 3 3 3 3 3 3 4 4 4 5 6 6 8
10 9 9 10 11 11 11 12 12 10 11 9 8 6 5 5 4 5 5 5 5 4 4 3 4 4 4 3 2 3 3 4 3 3 4 3 3 3 3 4 4 4 4 4 5 5 6 5 7
8 9 9 10 11 14 12 12 13 12 11 9 7 6 6 5 5 6 5 5 5 4 3 4 4 4 3 3 3 3 4 4 3 4 4 3 3 3 3 4 4 4 5 5 5 5 6 6 6
8 10 15 16 16 16 12 13 11 9 8 8 7 6 5 5 5 5 5 5 5 4 4 4 4 4 4 4 4 4 3 4 4 4 4 4 4 3 4 4 5 5 5 5 5 5 5 6 6
10 10 16 19 19 16 12 15 11 8 7 6 6 5 5 5 5 5 5 5 5 4 4 4 4 4 4 4 4 4 4 4 4 4 4 4 4 4 4 4 5 5 5 5 4 5 5 4 4
10 12 10 14 15 16 13 11 9 8 8 7 7 6 6 5 5 5 5 5 5 4 4 4 4 5 4 5 4 4 4 4 4 5 5 5 5 5 5 5 5 5 5 5 5 4 4 3 3
9 8 13 12 17 18 14 14 13 11 9 8 7 7 6 6 6 5 5 5 5 4 4 4 4 5 5 5 5 5 5 5 5 5 6 6 5 5 5 5 5 5 5 5 4 4 3 3 2
10 11 11 11 13 16 17 13 9 9 8 8 7 6 6 6 6 6 6 6 5 5 5 5 6 6 6 6 6 6 6 6 6 6 6 6 5 5 6 5 5 5 6 5 4 3 3 3 2
9 10 10 14 15 14 14 13 9 8 7 7 7 7 6 6 6 6 6 6 6 6 7 8 7 7 7 7 7 7 6 6 6 6 6 6 6 6 6 6 5 5 5 3 3 3 3 3 3

GFSSGP_con_lsi_024.txt.gz
Lid_Strength_Index
-1 1 2 3 7 7 8 8 7 9 9 6 5 7 7 7 9 11 1 -0 -0 -0 -1 -1 -1 -1 -2 -2 -2 -2 -1 -2 -2 -2 -2 -2 -2 -2 -2 -2 -3 -2 -2 -2 -2 -2 -2 -2 -2
2 4 2 4 8 10 9 7 8 8 6 5 5 6 6 8 4 4 2 -0 -0 -0 -1 -1 -1 -1 -1 -1 -1 -1 -1 -2 -2 -2 -2 -2 -2 -2 -2 -2 -3 -3 -2 -2 -2 -2 -2 -2 -2
3 2 4 6 8 10 8 8 7 6 5 5 6 4 6 7 4 3 1 -0 -1 -1 -1 -1 -1 -1 -1 -2 -1 -1 -2 -2 -2 -2 -2 -2 -2 -2 -2 -2 -3 -2 -2 -2 -2 -2 -2 -2 -2
3 3 4 8 9 8 7 7 6 6 5 4 5 8 4 2 3 1 0 -0 -0 -1 -1 -1 -1 -1 -2 -2 -1 -1 -2 -2 -2 -2 -2 -2 -2 -2 -2 -2 -2 -2 -2 -2 -2 -2 -2 -2 -3
2 4 7 8 9 8 6 5 5 6 6 5 5 7 6 3 1 0 0 -0 0 -0 -1 -1 -0 -1 -1 -1 -1 -1 -2 -2 -2 -2 -2 -3 -2 -2 -2 -2 -2 -2 -2 -2 -2 -2 -2 -2 -3
5 4 8 9 8 7 5 5 5 6 5 5 6 6 6 2 2 1 0 0 -0 -0 -1 -1 -1 -1 -1 -1 -1 -1 -2 -2 -2 -2 -2 -2 -2 -2 -2 -2 -2 -2 -2 -2 -2 -2 -2 -2 -2
6 7 8 8 9 8 7 4 6 6 6 6 4 7 6 3 1 1 0 -0 -1 -1 -1 -1 -1 -1 -0 -0 -1 -1 -2 -2 -2 -2 -2 -3 -3 -3 -2 -2 -2 -2 -2 -2 -2 -2 -2 -2 -2
4 6 8 7 9 9 6 5 4 6 6 3 3 7 8 3 1 0 0 0 -0 -0 -1 -1 -1 -1 -2 -2 -1 -1 -1 -2 -2 -2 -2 -2 -2 -2 -2 -2 -2 -1 -1 -1 -2 -2 -3 -2 -2
4 7 8 8 8 8 5 6 4 3 5 5 4 4 3 2 1 2 2 1 1 0 -0 -1 -1 -1 -2 -2 -2 -2 -2 -2 -2 -2 -2 -2 -2 -2 -2 -2 -2 -2 -2 -2 -2 -2 -2 -2 -2
6 7 7 5 6 6 5 5 5 6 6 6 5 3 3 2 2 3 3 3 2 1 1 -0 -1 -1 -1 -1 -2 -2 -2 -2 -2 -2 -2 -2 -2 -2 -2 -2 -2 -2 -1 -2 -2 -1 -2 -2 -1
5 6 6 6 5 5 5 5 4 5 7 5 6 5 4 3 3 3 3 2 2 1 1 0 -1 -1 -1 -2 -2 -2 -2 -2 -2 -2 -2 -2 -2 -3 -3 -3 -3 -3 -2 -3 -3 -3 -2 -2 -1
6 6 6 5 4 5 5 4 5 5 5 3 3 3 4 4 4 3 3 2 2 1 0 -1 -1 -1 -2 -2 -2 -2 -2 -2 -2 -2 -2 -2 -2 -2 -3 -3 -3 -3 -3 -3 -3 -2 -2 -1 -1
6 6 6 6 4 5 4 5 5 5 4 3 3 3 4 3 3 2 1 1 1 1 0 -0 -1 -1 -2 -2 -2 -1 -2 -1 -2 -2 -2 -2 -2 -2 -2 -3 -3 -3 -3 -2 -2 -2 -1 -1 -0
6 6 7 7 6 4 5 5 5 5 3 4 4 4 3 3 2 2 2 1 1 0 0 -1 -1 -1 -2 -1 -2 -1 -2 -2 -2 -2 -2 -1 -1 -2 -2 -3 -2 -2 -1 -1 -1 -1 -0 0 0
7 8 7 8 6 6 5 6 6 5 4 5 5 4 3 3 2 2 1 1 1 0 -0 -0 -1 -1 -1 -1 -1 -2 -1 -1 -1 -1 -2 -1 -1 -1 -2 -2 -2 -1 -1 -1 -0 -0 0 1 1
8 7 9 7 6 8 6 8 6 5 5 5 5 4 4 3 2 2 1 1 0 0 0 -0 -1 -1 -1 -1 -1 -0 -1 -1 -0 -1 -0 0 0 -1 -1 -0 -0 -0 0 1 1 1 1 1 1
8 9 9 8 6 7 7 8 6 5 5 5 5 4 4 4 3 2 1 1 0 0 0 0 -1 -0 -0 0 -1 -1 0 1 1 1 1 1 1 0 0 0 0 0 1 1 1 1 1 1 1
10 9 8 9 7 6 7 7 6 6 5 5 5 4 4 4 3 2 2 1 0 0 0 0 -0 -0 -0 -1 -1 1 2 2 0 1 0 -0 -0 -0 -0 0 0 0 1 1 1 1 1 2 2
8 8 9 7 7 7 8 8 7 6 6 6 5 5 4 4 3 2 2 1 1 0 1 0 0 -0 -0 0 0 1 0 0 1 0 1 0 0 1 0 0 0 0 1 1 1 2 3 3 2
7 8 9 8 7 7 8 9 7 6 6 6 5 5 5 4 4 3 2 2 1 1 1 1 0 -0 -0 -0 -1 -1 -0 -0 0 1 1 1 1 1 1 1 1 1 2 2 2 2 3 3 3
8 9 9 9 8 7 8 9 9 7 6 6 5 5 4 5 4 3 3 2 2 2 1 1 0 -0 -1 -1 -1 -1 -1 -0 0 0 0 1 1 1 1 2 2 2 2 3 2 3 4 5 5
9 7 7 8 9 11 8 12 10 8 8 7 6 5 5 5 4 3 3 2 2 1 0 -0 -0 -0 -1 -0 -0 0 0 1 1 1 1 1 1 2 2 2 2 2 2 3 3 4 4 5 6
9 7 7 8 8 9 9 10 10 9 10 8 7 6 5 4 3 3 3 2 1 1 0 -0 -0 -0 -0 -1 -1 0 1 2 1 1 2 2 2 2 2 2 2 2 2 3 4 4 5 5 6
6 7 8 8 9 13 10 11 10 10 9 8 7 6 5 4 3 3 2 2 2 1 1 0 1 1 0 1 1 1 2 3 3 3 3 4 3 2 2 2 2 2 2 3 4 4 4 5 5
7 9 12 14 14 14 10 11 9 7 7 7 7 6 5 4 3 3 3 3 2 2 1 1 1 2 2 2 3 3 3 3 4 4 4 4 4 4 4 3 3 3 3 4 3 4 4 4 5
8 9 12 15 15 12 10 12 9 7 5 5 5 5 4 4 3 3 3 2 2 2 1 1 2 3 3 3 3 3 4 3 3 4 4 5 5 5 5 4 4 3 3 3 3 3 4 4 5
9 10 8 13 13 14 11 10 7 7 6 6 6 5 5 4 3 3 2 2 2 2 2 2 3 4 4 4 4 4 4 4 5 5 4 5 5 6 5 5 4 4 4 3 3 4 4 3 3
8 7 11 11 17 16 12 11 10 9 8 7 6 6 5 4 3 3 3 2 2 2 2 2 3 4 4 4 4 6 5 5 5 5 5 6 5 5 5 5 5 4 3 3 3 4 3 3 2
9 9 9 9 11 13 14 11 7 8 7 7 6 5 4 4 3 3 2 2 2 2 3 3 4 5 5 6 6 5 5 5 5 5 6 5 5 5 6 5 5 4 4 4 4 3 2 2 2
7 9 8 11 13 12 12 11 6 6 6 5 6 5 4 3 3 3 3 3 3 3 3 5 5 7 7 6 5 5 5 6 5 6 6 5 5 5 5 5 5 5 4 4 4 3 3 2 2

GFSSGP_con_lsi_030.txt.gz
Lid_Strength_Index
-1 0 0 3 8 7 9 8 7 9 8 6 5 6 7 7 9 12 2 1 1 0 -1 -1 -1 -1 -1 -1 -1 -1 -2 -2 -2 -2 -2 -2 -2 -2 -2 -3 -3 -3 -2 -2 -2 -2 -2 -2 -2
-0 0 1 6 9 11 10 8 9 8 6 5 5 5 7 9 5 4 3 1 0 -0 -1 -1 -1 -1 -1 -1 -1 -2 -2 -2 -2 -2 -2 -2 -2 -2 -2 -2 -3 -3 -3 -3 -3 -3 -3 -2 -2
1 2 6 8 8 10 10 8 8 6 5 5 6 4 5 7 4 3 1 0 -0 -0 -1 -1 -1 -1 -1 -1 -1 -2 -2 -2 -2 -2 -2 -2 -2 -2 -2 -2 -2 -3 -2 -2 -3 -3 -2 -2 -3
3 4 5 8 9 8 7 9 8 7 5 4 5 7 4 2 3 2 0 -0 0 -0 -1 -0 -1 -1 -1 -1 -1 -2 -2 -2 -2 -2 -3 -2 -2 -2 -2 -2 -2 -2 -2 -2 -2 -2 -2 -3 -3
3 5 9 9 8 8 6 6 6 7 7 6 6 7 6 3 1 1 1 0 1 0 -1 -1 -1 -1 -1 -1 -2 -2 -2 -2 -2 -2 -2 -2 -2 -2 -2 -2 -2 -2 -2 -2 -2 -2 -2 -3 -4
6 6 9 10 9 7 6 5 6 7 7 7 7 6 5 2 2 1 0 1 -0 0 -1 -1 -1 -1 -1 -1 -1 -1 -1 -2 -2 -2 -2 -2 -2 -2 -2 -2 -2 -2 -2 -2 -2 -2 -2 -3 -3
6 8 9 9 8 8 6 5 7 8 8 7 5 7 5 3 1 1 1 0 -0 -0 -0 -1 -1 -1 -1 -1 -1 -1 -2 -2 -2 -2 -2 -3 -3 -3 -3 -3 -2 -2 -2 -2 -2 -3 -3 -3 -3
6 6 8 8 9 8 6 6 5 7 7 4 3 7 7 3 1 1 1 1 1 1 -0 -0 -1 -1 -1 -1 -1 -2 -2 -2 -3 -3 -3 -3 -3 -3 -3 -3 -2 -2 -2 -2 -2 -3 -3 -3 -3
4 8 9 8 8 9 7 9 5 4 5 5 4 4 4 2 1 2 2 2 2 1 0 -0 -0 -0 -0 -1 -1 -2 -2 -3 -3 -2 -2 -1 -1 -1 -1 -3 -3 -3 -3 -3 -3 -3 -2 -3 -3
6 8 8 6 6 8 8 8 7 6 6 5 5 3 3 2 3 3 3 3 3 2 1 -0 -0 -0 -1 -1 -1 -1 -1 -1 -1 -1 -0 -1 -1 -1 -1 -2 -3 -2 -2 -2 -2 -2 -2 -2 0
6 8 6 6 6 6 7 7 5 7 8 6 7 5 4 3 3 3 3 3 3 1 1 0 -0 -0 -0 -0 -0 -1 -0 -1 -1 -1 -1 -1 -1 -1 -1 -1 -0 -0 -1 -1 -1 -1 -1 -1 -0
7 6 6 5 5 5 7 5 6 6 6 5 4 5 4 4 4 3 3 3 2 2 1 0 -0 -0 -0 -0 -0 -1 -0 -0 -1 -1 -1 -1 -0 -1 -0 -0 -0 -1 -1 -0 -0 -0 -0 -0 -0
6 6 5 5 5 5 4 6 6 6 5 4 4 4 4 4 3 3 2 2 2 2 1 1 0 -0 -0 -0 -0 -0 -0 -1 -1 -1 -1 -1 -0 -0 -0 -0 -0 0 -0 -0 0 1 1 1 1
5 5 5 5 5 5 6 7 6 6 4 6 4 4 4 3 3 3 2 2 2 1 1 0 0 -0 -0 -0 -0 -0 -0 -0 -0 -1 -1 -1 -1 -0 -0 0 -0 -0 0 1 1 2 2 2 1
5 7 6 6 5 6 5 7 7 5 4 5 5 4 3 3 2 3 2 2 2 1 1 1 0 -0 -0 -0 -0 -0 -1 -1 -1 -1 -1 -1 -0 -1 -0 -0 1 1 1 2 2 2 1 1 1
7 7 10 7 6 5 7 11 6 4 5 5 5 4 4 3 3 2 2 2 1 1 1 0 -0 0 -0 -0 -0 -0 -0 -1 -0 -0 0 1 0 -0 1 1 1 1 0 0 1 1 1 2 2
7 10 10 8 6 6 7 9 5 4 5 5 5 4 4 4 3 2 2 1 1 1 1 1 0 0 0 -0 -0 -0 -1 0 -0 0 1 1 1 0 0 0 -0 0 1 1 1 1 2 3 4
11 10 9 9 7 7 7 8 6 5 5 5 5 5 4 4 3 2 2 1 1 1 1 1 0 0 -0 -0 -0 -0 -0 -0 0 0 1 0 -0 -1 -0 0 1 0 1 2 2 3 3 4 5
8 9 9 8 6 7 7 7 6 5 5 6 5 5 5 4 3 2 2 1 1 1 1 1 1 0 0 1 1 1 1 0 0 0 -0 -0 0 0 0 1 1 1 2 3 3 4 4 5 5
8 9 9 8 6 7 8 8 6 6 5 5 5 5 5 4 4 3 2 2 2 2 1 1 1 1 0 0 0 0 1 0 0 0 0 1 1 1 1 1 2 2 3 4 4 4 5 5 5
8 9 9 9 7 7 8 9 8 6 5 5 4 4 4 4 5 4 3 3 2 2 2 1 1 1 0 0 0 0 0 0 1 1 1 1 1 2 2 3 3 3 3 4 4 5 5 7 6
10 7 8 8 9 12 8 13 11 8 7 6 5 5 5 4 4 3 3 3 3 2 1 1 1 1 0 0 1 1 2 2 1 1 1 2 1 2 3 3 3 3 3 4 4 4 6 6 8
9 7 8 8 9 11 11 13 11 9 9 7 6 5 5 4 4 4 4 3 2 2 2 1 1 1 0 0 0 1 1 1 1 2 3 3 3 3 3 3 4 4 4 4 4 5 6 6 7
6 7 7 8 9 16 11 13 12 10 9 8 6 5 5 4 4 3 3 3 2 2 1 1 1 1 0 0 1 1 2 3 4 4 4 4 4 4 4 5 5 5 5 5 5 5 5 7 7
7 9 14 18 18 17 9 11 10 8 8 9 7 6 5 4 4 4 4 3 3 2 2 1 1 1 1 1 1 2 3 3 4 4 4 6 6 6 6 6 6 6 5 5 5 5 6 6 7
8 9 14 21 20 15 9 12 10 6 5 5 5 5 5 5 4 4 3 3 3 2 2 2 1 2 1 1 2 3 3 4 4 4 5 5 7 7 7 6 6 6 5 6 6 6 6 6 6
8 10 8 11 13 16 11 9 7 6 6 6 6 6 5 5 4 4 3 3 3 2 2 2 2 2 2 2 3 3 4 5 5 6 5 5 7 6 6 6 6 6 6 6 6 6 6 6 6
7 7 11 10 16 17 12 11 12 9 7 6 7 6 5 5 4 3 3 3 2 2 2 1 1 2 3 3 3 4 5 5 5 5 5 7 6 5 6 6 6 7 6 7 7 7 6 6 6
9 10 9 9 11 17 18 12 7 7 6 6 6 6 5 5 4 4 3 2 2 2 2 2 2 3 4 4 4 5 5 5 5 5 6 6 5 6 6 6 7 7 7 7 7 7 7 7 7
7 9 8 15 13 12 15 14 6 6 5 5 5 5 5 4 4 3 3 3 2 2 2 2 2 4 4 4 5 6 5 6 5 5 5 6 7 6 6 6 7 7 7 7 8 8 8 7 7

GFSSGP_con_lsi_033.txt.gz
Lid_Strength_Index
0 2 4 5 11 13 14 11 9 10 9 7 6 8 9 8 10 13 2 2 0 0 -0 -1 -1 -1 -1 -1 -1 -2 -2 -2 -2 -2 -2 -2 -2 -3 -3 -2 -3 -3 -3 -3 -3 -3 -3 -3 -2
2 2 4 7 14 16 14 10 11 9 7 5 5 6 8 9 5 4 3 2 1 -0 -0 -1 -1 -1 -1 -1 -2 -2 -2 -2 -2 -2 -2 -2 -2 -2 -2 -3 -3 -3 -3 -3 -3 -3 -3 -2 -2
2 2 9 12 14 15 14 11 9 7 6 6 7 6 6 8 4 3 2 1 0 -0 -0 -1 -1 -1 -1 -1 -2 -2 -2 -2 -2 -2 -3 -2 -2 -2 -2 -2 -2 -3 -2 -2 -3 -3 -2 -3 -4
5 7 9 13 13 11 10 9 8 7 6 6 6 8 5 5 4 2 1 1 1 -0 -1 -1 -1 -1 -1 -1 -2 -2 -2 -2 -2 -2 -2 -2 -2 -2 -2 -2 -2 -2 -2 -2 -2 -2 -3 -4 -3
5 8 13 14 11 10 7 7 7 8 8 7 6 8 7 4 2 1 1 0 1 0 -0 -1 -1 -1 -1 -2 -2 -2 -2 -2 -2 -2 -2 -2 -2 -2 -2 -2 -2 -2 -2 -2 -2 -2 -4 -4 -4
9 10 14 14 12 9 8 7 7 7 7 7 7 7 6 2 2 1 0 0 -0 0 -0 -1 -1 -1 -1 -1 -1 -1 -2 -2 -2 -2 -2 -2 -2 -2 -2 -2 -2 -2 -2 -2 -3 -3 -4 -3 -3
9 11 13 12 12 10 8 6 8 8 8 7 5 9 6 4 2 1 1 0 0 -0 -0 -1 -1 -1 -1 -1 -1 -1 -2 -2 -2 -2 -2 -3 -3 -3 -3 -3 -3 -3 -3 -3 -4 -3 -3 -2 -3
9 11 13 11 11 11 8 7 6 8 8 4 4 9 8 4 3 2 1 1 1 0 0 -0 -1 -1 -0 -1 -1 -2 -2 -2 -3 -3 -3 -3 -3 -3 -3 -3 -3 -3 -3 -3 -3 -3 -2 -2 -2
7 13 13 12 10 11 7 8 6 5 6 5 5 5 4 2 2 2 2 2 2 2 1 0 -0 -0 -0 -0 -1 -2 -3 -3 -3 -3 -2 -1 -1 -1 -2 -2 -3 -3 -2 -2 -2 -2 -2 -2 -2
9 13 11 8 8 9 8 7 7 7 8 7 6 4 3 3 3 3 3 3 2 3 3 2 -0 -0 -0 -1 -0 -1 -1 -1 -1 0 0 1 0 0 -1 -2 -2 -2 -2 -2 -2 -2 -2 -1 2
9 11 8 6 7 6 8 7 6 8 9 7 7 6 4 4 3 3 3 3 2 2 1 1 -0 -0 0 -0 0 -0 -0 -0 0 1 1 0 -0 0 0 -0 -0 1 -1 1 -0 -1 0 1 2
10 8 7 6 6 6 7 6 7 7 7 5 5 4 4 4 4 4 3 3 2 2 1 0 -0 0 0 -0 0 1 1 -0 -0 0 0 0 0 0 0 1 1 -0 0 1 1 2 2 3 3
8 7 7 5 5 6 5 7 7 7 5 4 4 4 4 4 4 3 2 2 2 2 1 1 1 0 0 0 0 -0 0 0 0 1 0 0 1 1 1 1 1 2 2 2 3 3 3 4 3
7 8 7 7 6 6 7 7 6 6 5 5 5 5 5 4 4 3 3 3 2 2 1 1 1 1 0 0 0 0 1 1 1 0 0 0 0 1 2 2 2 2 3 2 3 3 3 3 3
5 9 8 8 7 7 6 9 9 6 6 7 6 5 4 4 3 4 3 3 2 2 1 1 1 0 0 1 1 2 2 2 1 0 0 2 2 2 2 3 3 3 3 3 3 2 2 3 2
8 9 12 8 7 6 7 11 8 6 7 7 6 5 5 4 4 3 3 2 2 2 2 1 0 1 2 2 2 2 1 1 0 1 2 2 1 2 3 3 3 2 2 2 2 3 3 4 4
10 13 10 9 6 7 8 11 9 6 6 7 7 6 6 5 4 3 2 2 2 2 1 1 1 2 2 2 1 0 1 1 2 2 2 2 2 1 2 3 3 2 2 3 3 4 4 6 6
12 11 13 11 9 8 10 10 9 7 6 7 7 6 6 6 5 4 3 2 2 2 1 1 1 2 2 1 1 1 2 2 2 2 3 2 2 2 2 2 3 3 4 5 5 5 5 6 6
9 10 11 10 8 8 9 10 9 9 7 7 7 6 6 6 5 4 4 2 2 1 1 1 2 2 1 1 2 2 3 3 3 2 2 2 2 2 3 3 4 4 5 6 6 6 7 7 7
9 10 11 9 8 9 9 10 9 8 8 6 6 6 6 5 4 3 3 2 2 2 2 2 2 2 1 1 1 2 3 3 3 3 3 2 3 3 3 4 5 5 6 6 6 7 7 7 8
9 11 10 10 10 10 11 12 10 8 7 6 6 5 5 5 5 4 4 3 3 3 2 2 2 2 1 0 1 2 3 3 4 3 3 3 3 3 4 5 5 6 6 6 7 7 8 9 8
11 8 9 9 11 14 10 16 12 9 8 7 7 7 5 5 4 4 4 4 3 3 3 2 2 1 1 1 3 3 4 4 4 3 4 4 3 4 4 5 5 5 6 7 7 6 7 8 9
10 7 8 9 10 12 12 14 12 9 9 8 7 7 7 5 5 4 4 3 3 3 3 2 1 1 1 1 2 2 4 4 3 3 4 4 4 4 5 6 7 8 8 8 7 7 7 8 9
7 8 9 10 11 16 12 13 14 12 9 8 6 6 6 5 5 4 3 3 3 3 3 2 2 2 2 3 3 4 4 6 6 6 6 5 6 7 7 7 8 8 8 8 7 8 7 8 8
8 11 17 18 19 19 11 13 12 9 8 7 7 6 6 6 5 5 4 4 4 3 3 3 3 5 4 5 6 6 6 7 7 7 7 7 7 8 8 7 8 9 8 8 8 8 8 8 8
9 11 16 21 21 18 12 15 12 8 6 6 6 6 6 6 5 5 4 4 3 3 3 4 5 5 5 6 7 6 7 7 7 7 7 7 7 7 7 8 9 9 8 8 8 8 8 8 8
10 12 9 15 16 18 14 12 9 8 8 8 7 6 7 6 6 5 4 4 4 5 5 5 5 5 5 6 6 6 6 7 8 8 7 6 8 6 7 8 8 9 9 8 8 9 9 9 9
9 8 13 14 18 19 15 14 14 10 9 8 8 7 7 7 7 6 6 5 5 5 4 5 5 5 5 6 6 7 8 8 8 7 7 7 7 7 7 7 7 8 8 8 9 9 9 9 9
10 11 10 11 14 18 20 15 10 9 8 9 8 7 6 7 7 6 6 4 4 5 4 4 4 5 6 6 7 8 8 8 7 7 6 7 7 8 8 7 8 8 9 9 9 9 9 9 9
8 10 11 16 15 15 16 15 9 9 8 7 8 6 6 6 6 6 6 5 4 4 3 4 4 6 7 7 7 8 8 7 7 7 6 6 7 8 7 8 8 8 8 9 9 9 9 10 10

GFSSGP_con_lsi_036.txt.gz
Lid_Strength_Index
0 2 4 5 11 14 15 13 10 10 10 7 6 8 9 8 10 13 2 1 0 0 -0 -1 -1 -1 -1 -1 -2 -2 -2 -2 -2 -2 -2 -2 -2 -2 -2 -3 -3 -3 -3 -3 -3 -3 -3 -3 -2
2 3 5 8 14 17 15 10 11 9 7 6 6 7 8 10 5 4 3 0 -0 -0 -0 -1 -1 -1 -1 -1 -2 -2 -2 -2 -2 -2 -2 -2 -2 -2 -3 -3 -3 -3 -3 -3 -3 -3 -3 -3 -3
2 2 8 11 16 16 15 11 9 8 6 7 7 6 7 8 4 3 2 0 0 0 -0 -1 -1 -1 -1 -1 -2 -2 -2 -2 -2 -2 -2 -2 -2 -2 -2 -2 -2 -3 -2 -3 -3 -3 -3 -3 -3
4 8 10 14 15 12 11 9 8 8 7 6 6 8 5 5 4 2 2 0 0 -0 -0 -0 -0 -1 -1 -2 -2 -2 -2 -2 -2 -2 -2 -2 -2 -2 -2 -2 -2 -3 -2 -3 -3 -3 -3 -4 -3
5 10 14 15 13 10 8 8 7 9 8 7 6 9 7 4 2 2 1 0 1 0 -0 -0 -0 -1 -1 -2 -2 -2 -2 -2 -2 -2 -2 -2 -2 -2 -2 -2 -2 -2 -2 -2 -2 -3 -4 -4 -3
9 11 15 15 13 10 8 7 7 8 7 7 7 8 7 2 2 1 0 0 -0 0 -0 -0 -1 -1 -1 -1 -1 -2 -2 -2 -2 -2 -2 -2 -2 -2 -2 -2 -2 -3 -3 -4 -4 -4 -4 -4 -3
10 11 14 13 12 11 9 7 8 8 8 8 6 9 6 4 2 1 1 0 -0 -0 -0 -0 -1 -1 -1 -1 -1 -1 -2 -2 -2 -2 -2 -2 -2 -2 -3 -3 -3 -3 -4 -4 -3 -3 -2 -2 -3
9 11 14 13 12 11 8 7 6 7 8 4 4 9 9 4 2 1 1 1 1 2 2 1 0 0 -1 -1 -1 -1 -1 -2 -2 -2 -2 -2 -2 -3 -3 -3 -3 -3 -3 -3 -3 -2 -2 -2 -2
9 12 14 13 11 11 7 9 6 5 6 6 5 6 4 3 2 3 2 2 1 1 2 2 0 -1 -0 -0 -1 -2 -2 -2 -2 -2 -2 -1 -1 -1 -1 -2 -3 -3 -2 -2 -2 -1 -2 -2 -2
10 13 12 10 8 9 8 8 7 7 7 7 7 4 3 3 3 3 4 3 2 3 2 2 0 0 -0 -1 -0 0 -0 -0 -0 -0 -0 1 0 -0 -1 -2 -2 -2 -2 -2 -2 -2 -1 0 3
10 11 9 8 7 6 9 8 6 8 9 7 8 6 4 4 3 4 3 3 3 2 1 1 -0 -0 0 0 0 0 0 1 1 1 1 1 -0 0 0 -1 0 1 -1 1 1 2 3 3 4
10 8 8 7 6 7 8 7 8 7 7 5 5 4 4 4 4 4 3 3 4 4 2 1 1 -0 0 0 0 0 -0 0 1 1 0 1 1 1 2 1 1 2 2 3 3 3 4 4 3
9 8 6 6 6 6 6 7 7 8 6 4 4 4 5 4 4 3 3 2 2 2 1 1 1 0 0 0 0 0 0 0 1 1 1 1 2 2 2 2 3 3 3 4 4 4 4 4 3
7 7 7 6 6 5 7 7 7 7 6 5 5 5 5 4 4 3 3 3 2 2 1 1 0 2 0 0 0 0 1 2 2 1 1 1 2 3 3 3 4 4 4 4 4 4 4 4 4
6 9 7 8 7 8 6 9 9 6 5 6 6 5 5 4 3 4 3 3 2 1 1 1 1 1 0 0 1 2 2 2 1 1 1 1 2 2 3 4 4 4 4 4 4 4 4 5 5
8 10 12 8 8 7 8 12 8 6 6 7 6 6 5 4 4 3 2 2 2 1 2 2 1 0 2 2 2 3 3 2 2 2 2 2 2 3 3 4 4 3 3 3 4 4 5 6 7
11 14 12 10 7 7 8 11 9 7 7 7 7 7 5 5 4 3 2 2 2 2 3 2 1 2 3 3 3 3 3 3 3 3 3 2 2 3 3 4 4 3 4 5 4 5 6 7 7
13 12 13 12 9 8 10 10 10 7 7 8 8 8 6 5 5 3 2 2 2 2 2 1 2 3 3 2 2 3 3 3 2 3 3 3 2 2 4 4 4 4 6 6 7 7 7 7 7
10 11 11 11 9 9 9 10 11 8 8 8 9 8 6 5 4 3 3 3 3 3 2 1 2 2 2 2 2 4 4 3 3 3 3 2 3 3 4 5 5 5 6 6 6 7 8 8 9
9 11 11 10 9 8 10 10 10 9 8 7 7 7 7 7 6 4 4 3 3 3 2 2 2 2 2 2 2 3 3 3 3 4 3 4 4 4 4 5 5 5 6 6 7 7 8 8 9
10 11 11 11 10 11 11 12 11 10 8 7 6 6 6 6 6 5 4 3 3 2 2 2 2 2 2 2 1 3 4 5 5 6 5 5 3 3 4 5 5 6 6 7 7 8 9 10 10
12 8 9 10 12 14 12 16 12 10 9 8 7 6 6 6 5 4 4 3 3 2 1 2 2 2 2 2 2 3 4 5 6 6 5 4 4 4 5 5 5 6 6 7 7 7 8 10 10
10 8 9 9 12 13 12 14 13 10 10 9 9 7 6 5 5 5 4 3 3 2 3 2 2 3 2 1 2 4 6 5 5 5 4 5 5 5 6 7 7 8 8 8 8 8 10 9 10
7 9 10 11 12 16 13 14 14 12 9 9 7 7 7 6 5 4 3 3 3 2 3 2 2 2 2 1 3 5 6 6 5 5 5 5 7 7 7 8 8 8 7 8 8 9 9 9 10
8 12 17 18 18 18 12 14 12 10 8 7 7 7 6 5 5 5 5 4 3 3 3 3 2 2 2 3 4 6 6 6 5 6 7 8 8 8 8 7 7 8 8 9 9 9 9 9 10
10 12 16 20 20 17 12 16 12 8 7 6 6 7 6 6 5 5 4 4 3 3 3 3 2 4 6 7 8 8 7 6 7 7 7 7 8 8 7 8 8 8 8 9 9 9 9 9 10
10 13 10 15 16 18 15 12 10 9 8 8 8 7 7 7 6 5 4 4 4 4 3 4 6 7 8 9 8 7 7 7 7 6 6 6 7 7 8 8 8 8 9 9 10 9 9 10 10
9 9 13 14 19 20 15 15 14 11 10 9 9 8 7 6 6 5 5 5 5 4 5 6 7 7 8 8 8 8 8 7 7 7 7 7 7 7 8 7 7 8 9 9 9 10 10 10 10
11 11 11 12 14 18 20 15 12 9 9 9 8 7 7 7 6 5 4 4 4 5 6 7 6 7 8 8 9 9 8 7 7 7 7 7 7 7 7 7 8 8 9 9 10 10 10 10 10
10 10 11 17 16 15 17 15 9 9 8 8 8 7 7 6 6 5 5 4 5 5 5 6 6 7 7 7 8 8 8 6 7 7 7 6 6 6 7 7 8 9 9 10 10 10 10 10 10

GFSSGP_con_lsi_039.txt.gz
Lid_Strength_Index
1 2 5 6 12 14 16 13 12 9 10 8 7 8 9 8 10 13 2 1 0 0 -0 -0 -1 -1 -1 -2 -2 -2 -2 -2 -1 -1 -2 -2 -2 -2 -2 -3 -3 -3 -3 -3 -3 -3 -2 -2 -2
3 4 6 10 15 17 15 12 10 9 8 6 6 7 8 10 5 4 3 1 -0 -0 -0 -0 -1 -1 -1 -1 -2 -2 -2 -2 -2 -2 -2 -2 -2 -2 -3 -2 -2 -3 -3 -3 -3 -3 -3 -2 -2
3 3 8 12 17 16 15 10 10 8 7 7 7 6 7 8 4 4 1 0 -0 -0 -0 -1 -1 -1 -1 -1 -2 -2 -2 -2 -2 -2 -2 -2 -2 -2 -2 -2 -2 -3 -3 -3 -3 -3 -2 -2 -3
5 7 10 14 15 14 12 11 9 9 7 6 7 9 6 3 4 2 0 0 0 0 -0 -0 -0 -1 -1 -1 -2 -2 -2 -2 -2 -2 -2 -2 -2 -2 -2 -2 -2 -3 -3 -3 -3 -3 -3 -3 -2
6 10 14 16 14 12 9 8 8 9 8 8 7 9 8 3 2 1 1 0 1 0 -0 -0 -0 -1 -1 -2 -2 -2 -2 -1 -2 -2 -2 -2 -2 -2 -2 -2 -2 -3 -3 -3 -3 -3 -3 -3 -3
9 11 14 16 14 11 9 8 8 8 8 7 7 8 7 2 2 1 0 1 0 1 -0 -0 -1 -1 -1 -1 -1 -1 -1 -1 -2 -2 -2 -2 -2 -2 -2 -2 -3 -3 -4 -4 -4 -4 -3 -3 -2
10 12 13 14 13 12 9 7 8 8 8 8 6 9 6 4 2 1 1 2 2 2 -0 -0 -0 -1 -1 -1 -1 -1 -1 -1 -1 -2 -2 -2 -2 -2 -2 -2 -3 -3 -3 -3 -3 -3 -3 -2 -2
9 11 14 13 14 13 8 7 7 7 8 4 5 9 9 4 2 2 2 2 3 3 2 2 1 1 -0 0 -1 -1 -1 -1 -1 -2 -2 -2 -2 -2 -3 -3 -3 -3 -3 -4 -3 -2 -2 -2 -2
9 12 14 13 13 10 8 9 7 5 7 6 5 6 4 2 2 2 2 2 3 2 3 2 1 2 1 0 -1 -1 -2 -1 -1 -2 -2 -1 -0 -0 -1 -2 -2 -3 -3 -2 -2 -2 -1 -1 -1
10 13 12 10 9 9 8 8 7 7 8 8 7 4 3 3 3 3 3 3 3 3 3 2 2 2 -0 -1 0 1 -0 -0 -0 -0 0 -0 0 -0 -1 -2 -1 -2 -2 -2 -2 -1 -1 2 4
11 11 10 9 7 7 8 9 7 8 10 7 8 6 4 4 4 4 3 3 3 3 2 3 2 1 1 0 1 0 0 0 -0 0 0 0 -0 -0 0 0 1 1 -0 2 2 3 3 4 4
11 9 9 7 7 7 8 7 8 8 7 5 5 4 4 5 4 4 4 3 2 3 3 2 0 -0 1 0 0 0 0 0 1 1 1 1 1 1 1 1 1 2 3 4 4 4 4 4 4
10 9 6 6 6 6 6 7 7 8 6 5 4 4 5 4 4 3 2 2 2 2 1 1 0 1 1 1 0 0 1 1 0 1 1 1 1 3 3 3 3 4 4 4 5 4 4 4 5
8 8 7 7 7 6 7 7 7 7 5 6 5 5 5 4 4 3 3 3 2 2 1 1 1 0 1 1 0 -0 -0 1 2 2 2 2 2 3 4 4 5 5 4 5 5 5 5 6 6
7 9 8 8 7 8 6 10 10 6 6 7 6 6 5 4 4 4 3 3 2 2 1 1 1 2 1 0 0 0 1 2 2 2 2 2 3 4 5 5 5 5 5 5 5 5 6 7 6
9 10 12 9 8 7 9 13 8 7 7 7 7 6 5 4 4 3 2 2 2 1 1 1 0 2 1 0 1 2 3 3 3 3 3 3 3 4 5 4 5 5 5 5 5 6 7 7 7
11 14 13 10 8 8 9 11 8 6 7 8 7 6 6 5 4 3 2 2 2 1 1 2 2 2 2 2 3 3 3 4 4 3 3 3 3 3 4 5 5 5 6 5 5 6 7 8 8
14 13 13 13 10 9 10 10 9 7 7 8 7 7 6 6 5 3 3 2 1 2 3 2 3 3 3 2 3 4 4 4 4 4 3 3 3 4 4 5 6 6 6 7 7 7 7 8 8
10 11 12 11 9 9 9 11 9 8 8 8 8 8 6 6 4 3 3 2 2 3 3 3 3 3 2 3 4 5 6 5 5 4 3 3 3 4 5 6 6 6 6 7 7 7 8 8 9
10 11 11 10 9 9 10 10 10 8 8 8 7 9 7 6 5 4 3 3 3 4 3 3 3 3 3 3 5 5 5 5 4 4 3 4 4 5 6 6 6 6 7 7 7 8 8 8 9
11 11 11 11 10 12 11 12 11 10 8 7 7 8 6 6 6 5 4 3 3 4 4 3 2 3 3 3 3 5 5 5 6 5 6 6 5 5 5 6 6 6 6 7 7 8 8 9 9
12 9 10 11 12 15 12 16 12 11 9 9 8 8 7 5 5 4 4 4 3 4 3 2 2 3 2 2 3 4 5 5 6 6 6 6 5 5 5 6 6 7 7 8 7 8 9 9 10
11 9 10 10 12 13 13 15 13 10 11 9 8 8 7 6 5 5 4 3 3 4 3 2 2 2 2 2 2 4 5 6 6 7 7 7 7 6 6 7 7 7 8 7 8 9 9 9 10
8 10 10 11 12 16 14 14 14 12 10 9 7 7 7 6 6 5 4 4 4 3 3 2 2 2 2 2 3 5 5 6 6 7 7 7 8 8 8 8 7 7 8 8 9 9 9 9 10
10 12 17 18 18 18 12 14 13 10 9 9 8 7 6 6 6 5 5 4 3 3 3 2 2 2 3 3 3 5 5 6 6 6 6 8 9 9 8 8 8 8 8 8 9 9 9 9 9
11 12 16 20 20 17 13 17 12 9 8 8 8 7 7 6 5 5 4 4 3 3 2 2 3 3 3 4 4 6 6 6 6 6 7 8 8 8 8 8 8 8 7 8 8 9 9 10 10
11 13 11 15 16 18 15 12 10 9 9 8 8 7 7 6 6 5 4 4 3 3 3 3 3 3 5 6 7 8 8 9 7 7 7 8 8 8 8 7 7 7 7 8 8 8 10 10 10
10 9 14 14 19 20 16 15 14 11 10 9 9 8 7 6 6 5 5 4 3 3 3 4 4 5 8 9 8 8 8 8 6 7 7 8 8 7 7 8 8 7 7 8 9 10 10 10 10
11 13 12 12 15 18 20 16 12 11 9 9 9 8 7 7 6 5 5 4 4 4 4 4 6 7 9 10 9 9 8 8 7 7 8 8 7 8 8 8 8 8 8 10 10 10 10 10 10
10 11 12 16 16 16 17 16 10 10 9 8 7 7 6 6 5 5 4 4 4 5 5 5 5 7 9 9 9 9 8 8 8 7 8 8 8 8 8 7 8 9 9 10 10 10 10 10 11

GFSSGP_con_lsi_042.txt.gz
Lid_Strength_Index
1 3 5 7 12 14 16 13 12 11 10 8 7 8 9 8 10 13 2 1 0 0 -0 -0 -1 -1 -1 -2 -2 -2 -2 -2 -2 -2 -2 -2 -2 -2 -2 -2 -2 -3 -3 -2 -2 -2 -2 -2 -2
3 4 6 10 15 17 16 13 12 10 8 7 7 7 9 10 5 4 3 1 -0 -0 -0 -0 -1 -1 -1 -2 -2 -2 -2 -2 -2 -2 -2 -2 -2 -2 -3 -2 -2 -3 -3 -2 -2 -2 -2 -2 -2
4 5 8 13 16 16 15 12 10 8 7 7 8 6 7 8 4 4 1 0 -0 -0 -0 -0 -1 -1 -1 -2 -2 -2 -2 -2 -2 -2 -2 -2 -2 -2 -2 -2 -2 -3 -3 -3 -3 -2 -2 -2 -2
5 7 11 14 16 14 13 12 9 9 7 6 7 9 5 3 4 2 1 0 0 -0 -0 -0 -1 -1 -1 -2 -2 -2 -2 -2 -2 -2 -2 -2 -2 -2 -2 -2 -2 -3 -3 -3 -3 -2 -2 -2 -2
7 10 13 16 15 13 11 9 9 10 9 8 7 9 8 3 1 1 1 1 1 0 -0 -0 -0 -1 -1 -2 -2 -2 -2 -2 -2 -2 -2 -2 -2 -2 -2 -2 -2 -3 -3 -3 -3 -3 -3 -3 -3
9 11 15 16 14 12 9 8 8 9 8 7 8 8 7 2 2 3 3 3 2 1 -0 -0 -1 -1 -1 -1 -1 -1 -1 -2 -2 -2 -2 -2 -2 -2 -2 -2 -3 -3 -3 -3 -3 -3 -3 -3 -3
10 12 15 16 14 12 9 7 9 9 8 8 6 10 6 4 2 3 4 3 3 2 0 0 1 -1 -1 -1 -1 -1 -1 -1 -1 -2 -2 -2 -2 -2 -3 -3 -4 -4 -3 -3 -3 -2 -2 -3 -2
9 12 15 15 14 14 9 8 7 8 9 5 5 9 9 4 3 3 3 3 3 3 2 1 1 1 0 -0 -1 -1 -1 -1 -1 -2 -2 -2 -2 -3 -3 -3 -3 -4 -3 -3 -3 -3 -2 -2 -2
10 13 14 14 14 12 8 9 7 5 7 6 5 6 4 2 2 3 3 3 3 3 4 3 2 2 1 1 -0 -1 -1 -1 -2 -2 -2 -1 -0 -1 -0 -2 -2 -3 -3 -3 -3 -2 -1 -1 -1
11 13 12 10 11 10 8 8 7 8 8 8 7 4 3 3 3 4 4 4 4 4 4 3 2 2 1 1 1 0 -0 0 0 -0 -0 -0 -0 -0 -1 -2 -2 -2 -2 -2 -1 -0 -0 2 4
11 12 10 9 9 7 8 8 7 8 10 8 8 6 4 4 4 4 4 3 3 3 2 2 2 2 1 2 2 2 1 1 0 0 0 0 -0 -0 -0 1 2 1 1 3 3 3 4 4 4
11 9 9 9 7 7 8 7 8 8 7 5 5 4 4 4 4 4 4 3 3 3 2 2 2 1 1 2 2 1 0 0 0 -0 -0 0 0 1 1 2 2 3 4 4 4 4 5 5 5
11 10 8 8 6 7 6 7 8 9 6 5 4 4 5 4 4 3 3 2 2 3 3 3 2 1 1 1 1 0 0 0 0 1 1 1 1 2 2 3 4 4 5 5 5 5 6 6 6
8 8 8 7 7 7 8 8 7 7 5 6 5 5 5 4 4 3 3 3 2 2 1 1 0 1 1 1 0 0 0 -0 0 1 1 1 2 3 5 5 5 5 5 5 6 6 7 7 7
7 9 8 8 8 8 6 10 9 7 6 7 6 6 5 4 4 4 3 3 2 2 2 1 1 1 2 2 1 0 0 1 2 3 3 3 3 4 5 6 6 5 5 6 6 7 7 7 7
10 10 12 9 8 8 9 12 9 7 7 8 7 6 5 5 4 3 3 2 2 2 1 1 0 2 2 2 0 0 1 3 3 3 3 3 4 5 6 6 6 5 5 6 6 7 7 8 8
12 14 13 11 8 8 10 12 9 6 7 8 7 7 6 5 4 3 2 2 2 1 1 1 1 2 3 2 1 1 2 3 4 4 4 4 4 4 5 6 5 6 6 6 6 7 7 8 8
14 13 13 13 10 10 11 11 9 7 8 8 8 7 6 6 5 3 3 2 2 2 1 2 2 3 3 2 2 3 4 4 4 3 4 3 4 4 4 5 6 7 7 7 7 8 8 8 8
11 12 13 12 10 10 10 11 9 8 8 8 8 7 7 6 4 3 3 2 2 2 3 2 3 4 3 3 3 5 5 4 4 4 4 4 4 4 5 6 7 7 7 8 8 8 8 9 9
10 12 12 11 10 10 12 11 9 8 8 8 8 7 7 6 5 4 3 3 2 2 2 2 2 4 3 2 3 4 5 5 4 4 5 4 4 5 6 7 7 7 7 7 8 8 8 9 9
11 12 12 11 10 12 12 13 12 10 8 7 7 6 6 6 6 5 4 3 3 3 3 3 3 3 3 2 4 5 6 6 6 6 6 5 5 6 6 7 7 7 7 7 8 8 8 9 9
13 10 10 11 12 15 13 17 13 12 10 8 8 7 7 7 5 5 4 4 3 3 3 3 3 3 3 3 3 5 5 7 7 6 5 6 6 7 7 7 7 7 7 8 8 8 8 9 10
11 9 10 11 13 14 14 15 14 11 11 10 8 7 7 7 5 5 4 3 3 4 4 4 4 4 3 3 3 5 6 6 7 6 6 7 7 7 7 7 8 9 9 9 8 9 8 9 9
9 10 11 12 13 17 14 15 15 13 10 10 7 7 6 7 6 4 4 4 4 4 4 4 4 4 2 2 3 5 5 6 6 7 7 8 9 9 8 9 9 9 9 8 9 8 9 10 9
11 12 17 18 18 18 13 15 13 10 10 9 9 7 7 7 7 6 5 5 5 4 3 3 3 3 3 3 3 4 5 5 5 6 6 8 10 10 10 9 10 9 9 8 8 9 9 9 9
12 12 16 20 20 17 13 16 12 10 8 8 9 9 7 6 7 6 5 4 5 4 3 3 3 3 3 3 3 4 4 4 5 5 6 7 9 10 9 9 8 8 8 8 8 9 8 9 10
11 14 12 15 16 18 15 13 11 10 9 8 9 8 8 7 6 5 5 4 4 4 3 3 3 3 3 3 3 3 4 5 5 5 6 8 9 8 9 8 8 7 8 8 9 8 8 9 10
11 10 14 15 19 20 17 16 14 11 11 10 9 8 8 7 6 5 5 4 3 3 3 3 3 3 3 4 4 5 6 6 6 6 7 8 8 8 9 8 7 8 8 8 9 9 9 10 10
12 13 13 13 16 18 19 16 12 11 10 10 9 8 7 7 6 5 5 4 3 3 3 3 3 4 5 6 7 7 8 7 6 7 6 7 8 9 9 8 8 8 9 9 9 9 10 10 10
11 11 12 16 16 16 17 16 11 11 11 10 9 8 8 6 6 5 5 4 4 4 4 4 4 4 5 8 9 8 7 7 7 7 8 9 9 9 8 8 8 9 9 9 10 10 9 10 11

GFSSGP_con_lsi_045.txt.gz
Lid_Strength_Index
-1 1 1 4 8 9 11 10 9 9 7 7 6 7 8 7 9 11 2 1 -0 0 -1 -1 -1 -1 -1 -2 -2 -2 -2 -2 -2 -2 -2 -2 -2 -2 -2 -2 -2 -3 -2 -2 -2 -2 -2 -2 -2
1 2 2 6 9 11 11 9 8 8 7 6 6 7 8 9 5 4 3 0 -0 -0 -1 -1 -1 -1 -1 -2 -2 -2 -2 -2 -2 -2 -2 -2 -2 -2 -2 -2 -2 -2 -2 -2 -2 -2 -2 -2 -2
2 3 4 7 10 11 11 9 7 7 6 6 7 5 7 8 4 3 1 0 -0 -0 -1 -1 -1 -1 -1 -2 -2 -2 -2 -2 -2 -2 -2 -2 -2 -3 -3 -2 -2 -2 -2 -2 -2 -2 -2 -2 -2
3 4 7 9 10 10 10 8 7 7 6 5 6 8 5 3 3 2 0 -0 0 -0 -1 -1 -1 -1 -2 -2 -2 -2 -2 -2 -2 -2 -2 -2 -2 -2 -2 -2 -2 -3 -3 -2 -2 -2 -2 -2 -2
4 6 8 10 11 10 9 6 7 8 7 7 6 9 7 3 3 2 2 0 1 0 -1 -1 -0 -1 -1 -2 -2 -2 -2 -2 -2 -2 -2 -2 -2 -2 -2 -2 -2 -3 -3 -3 -3 -3 -3 -3 -3
5 6 9 11 10 9 8 7 7 8 7 7 7 7 7 2 3 3 2 2 1 0 -1 -1 -1 -1 -1 -1 -1 -1 -1 -2 -2 -2 -2 -2 -2 -2 -2 -2 -2 -3 -3 -2 -3 -3 -3 -3 -3
6 7 9 11 11 10 8 6 8 8 7 7 5 9 6 4 3 3 3 2 2 1 -0 -0 -0 -0 -0 -1 -1 -1 -1 -1 -1 -1 -2 -2 -2 -2 -2 -2 -2 -3 -3 -3 -3 -3 -3 -3 -2
6 7 10 11 11 11 7 7 6 7 8 4 4 9 8 4 3 3 3 3 3 2 3 2 2 2 0 -1 -1 -1 -1 -1 -1 -2 -1 -2 -2 -3 -3 -3 -3 -3 -3 -3 -3 -3 -2 -2 -1
6 8 10 11 11 10 7 8 6 5 7 6 5 5 4 3 2 3 3 4 3 3 4 4 3 2 1 -0 -1 -1 -1 -1 -1 -1 -1 -1 -2 -2 -2 -3 -3 -3 -3 -3 -3 -2 -1 -1 -1
6 9 9 8 8 8 7 7 7 7 8 7 6 4 3 3 2 3 3 4 4 5 4 4 3 2 1 1 -0 -1 -1 -1 -1 -1 -1 -2 -2 -2 -2 -2 -2 -3 -2 -2 -1 -1 1 0 1
8 9 7 7 7 6 7 7 6 8 9 7 8 6 4 4 3 4 3 4 5 4 3 2 2 2 1 1 1 0 0 0 -0 -2 -2 -2 -2 -2 -2 -2 -2 -1 -0 1 1 1 1 2 2
8 7 7 7 6 7 7 6 7 7 7 5 5 4 4 4 4 4 3 4 4 4 3 3 2 2 2 1 1 1 1 -0 -1 -1 -2 -2 -1 -1 -1 -1 -1 1 1 1 1 2 2 2 2
8 8 7 6 6 6 6 7 7 8 5 4 4 4 4 4 4 3 2 2 3 3 3 2 1 0 0 1 1 1 -0 -1 -2 -1 -2 -1 -1 -1 -1 0 0 1 1 1 2 2 3 3 3
7 7 6 6 6 6 7 7 7 7 5 5 5 5 4 4 4 3 3 2 2 2 2 1 1 -0 0 1 1 -0 -1 -1 -1 -2 -1 -2 -2 -1 -0 1 2 2 1 1 2 3 3 3 3
6 8 7 7 6 7 6 9 8 6 5 6 6 5 4 4 3 3 2 2 2 1 1 0 -0 -1 -1 -1 -1 -1 -1 -1 -1 -1 -2 -2 -1 0 1 2 2 2 2 2 3 3 3 3 4
8 8 10 7 7 7 7 10 8 6 7 7 6 5 5 4 3 3 2 2 1 1 1 0 -0 -0 -0 -1 -1 -1 -1 -1 -1 -1 -0 -0 1 1 2 2 2 2 2 2 4 3 3 3 3
9 11 11 9 7 7 8 10 8 6 7 7 6 6 5 5 4 3 2 1 1 1 1 1 -0 0 -0 -1 -1 -1 -1 -1 -0 -0 0 1 2 2 2 2 2 2 2 3 3 3 3 4 4
11 11 10 10 8 8 9 9 8 7 7 7 6 6 6 5 4 3 2 1 1 1 0 0 0 -0 -0 -1 -1 -1 -1 -0 0 0 0 1 2 2 1 2 2 3 4 4 4 3 3 3 3
9 10 10 9 8 9 9 9 8 8 7 8 7 6 6 5 3 2 2 1 1 1 1 1 1 0 0 0 1 1 1 0 1 1 1 1 1 1 1 2 3 3 4 4 3 3 4 4 4
9 10 10 9 8 8 9 9 7 8 8 7 7 6 6 5 4 3 3 2 2 1 1 1 1 0 0 0 0 0 0 0 1 3 3 2 1 2 2 3 3 3 4 3 3 3 4 4 4
9 10 10 10 9 9 10 10 9 8 7 6 6 6 5 5 5 4 3 3 2 2 1 1 1 0 0 -0 -0 0 1 2 3 3 3 2 2 2 3 4 4 3 3 4 3 4 4 6 5
11 8 9 10 10 12 10 13 11 9 9 8 7 6 6 5 4 4 4 3 2 2 1 1 1 0 0 1 1 1 1 2 2 2 2 3 3 3 4 4 3 4 4 4 4 5 5 5 7
10 8 9 9 10 11 11 12 10 9 9 9 7 6 6 5 4 4 4 3 2 2 1 1 1 1 0 1 1 1 1 1 1 2 3 3 4 4 5 4 4 4 4 5 5 5 5 6 7
7 8 10 10 11 15 12 12 12 10 9 8 6 6 6 5 4 4 3 2 2 2 1 1 1 1 0 1 2 2 2 2 3 4 4 5 4 4 5 5 5 5 6 6 6 5 6 7 6
8 10 15 16 16 16 12 13 11 8 8 7 6 6 5 5 4 4 4 3 3 2 2 1 1 2 1 2 2 2 2 2 2 4 5 5 5 5 5 5 6 6 6 6 6 7 8 7 7
10 10 15 18 18 15 12 14 10 7 7 6 6 6 6 5 4 4 4 3 3 3 2 2 2 2 2 2 2 1 2 2 2 3 4 5 5 5 5 6 7 7 7 7 7 7 7 6 6
10 12 9 14 14 16 13 11 8 7 7 6 6 6 6 5 4 4 3 3 3 2 2 2 2 2 2 2 1 1 2 2 3 4 4 5 4 6 6 6 6 6 7 7 8 7 6 6 6
9 8 13 13 18 19 15 13 12 9 8 7 7 6 6 5 5 4 4 3 3 2 2 1 1 2 1 1 1 1 1 2 2 3 4 4 5 6 6 6 6 6 6 7 8 7 7 6 6
10 11 11 11 13 16 17 14 9 8 8 7 7 6 6 5 5 4 4 3 2 2 2 2 2 2 1 1 1 1 2 2 2 3 4 5 6 6 7 7 6 7 8 7 8 8 7 7 6
9 10 10 14 15 14 15 14 8 8 8 7 7 6 5 5 5 4 4 3 3 3 2 2 2 2 1 1 2 2 3 3 4 4 4 4 6 7 7 7 8 8 8 7 7 7 8 7 7

GFSSGP_con_lsi_048.txt.gz
Lid_Strength_Index
-1 -1 -1 1 6 6 9 8 6 7 6 5 5 6 7 6 8 11 1 0 0 -0 -1 -1 -1 -1 -1 -1 -1 -2 -2 -2 -2 -2 -2 -2 -2 -2 -2 -2 -2 -2 -2 -2 -2 -2 -3 -2 -2
-0 0 0 2 8 10 9 6 7 6 6 5 5 6 7 9 5 4 3 0 -0 -0 -1 -1 -1 -1 -1 -1 -2 -2 -2 -2 -2 -2 -2 -2 -2 -2 -2 -2 -2 -2 -2 -2 -2 -2 -2 -2 -2
-0 0 4 5 7 10 9 7 6 5 5 6 6 5 6 7 4 3 1 0 -0 -0 -1 -1 -1 -1 -1 -2 -2 -2 -2 -2 -2 -2 -2 -2 -2 -2 -2 -2 -2 -2 -2 -2 -2 -2 -2 -2 -2
1 1 3 7 9 7 7 6 6 5 5 5 5 8 5 3 3 2 0 -0 0 -0 -1 -1 -1 -1 -1 -2 -2 -2 -2 -1 -2 -2 -2 -2 -2 -2 -2 -2 -2 -2 -2 -2 -2 -2 -2 -2 -2
1 3 7 8 8 7 6 6 5 6 6 6 5 7 7 3 1 1 1 0 1 0 -1 -1 -0 -1 -1 -2 -2 -1 -1 -2 -2 -2 -2 -2 -2 -2 -2 -2 -2 -2 -2 -2 -2 -2 -2 -2 -2
4 3 8 9 8 7 5 5 6 6 6 6 6 6 6 2 2 1 2 1 1 0 -0 -1 -1 -1 -1 -1 -1 -1 -1 -2 -2 -2 -2 -2 -2 -2 -2 -2 -2 -2 -2 -2 -3 -3 -2 -2 -2
5 6 8 8 8 7 6 5 7 7 6 7 5 8 6 4 2 2 1 1 1 1 -0 -0 -1 -1 -0 -1 -1 -1 -1 -1 -1 -1 -1 -2 -2 -2 -2 -2 -2 -2 -2 -2 -2 -3 -2 -2 -2
3 5 8 7 8 8 6 6 5 6 7 4 4 7 8 4 3 3 2 2 3 2 1 2 2 2 -0 -1 -1 -1 -1 -1 -1 -1 -2 -1 -2 -2 -2 -2 -2 -2 -2 -2 -2 -3 -2 -2 -1
3 7 7 8 8 8 5 7 5 4 6 5 4 5 3 3 2 2 3 4 4 3 3 3 3 4 2 1 -1 -1 -1 -1 -1 -1 -1 0 -0 -1 -2 -2 -2 -2 -2 -2 -2 -2 -2 -1 1
5 7 8 6 5 7 6 6 6 7 7 7 6 4 3 3 3 3 4 4 6 5 4 4 3 3 2 1 -0 -1 -1 -0 0 1 0 -0 -2 -2 -2 -2 -2 -2 -2 -2 -1 -1 -2 -1 -0
5 7 6 5 5 6 6 6 5 6 8 6 7 6 4 3 3 3 3 4 5 5 4 4 3 3 2 1 -1 -0 0 0 -0 -1 -1 -2 -2 -2 -2 -2 -2 -2 -2 -0 0 -0 -1 -1 -1
6 5 5 5 4 5 7 5 7 6 6 4 4 4 4 4 4 4 4 4 4 4 4 4 4 3 2 1 0 0 1 0 -0 -0 -2 -2 -2 -2 -2 -2 -2 -2 -1 -1 -1 -1 -0 -0 -0
6 5 5 5 5 5 5 6 6 7 5 4 4 4 4 4 4 3 2 3 3 3 4 4 3 2 2 2 1 0 0 0 0 -2 -2 -2 -2 -2 -2 -2 -2 -1 -1 -1 -1 -0 0 0 0
5 5 5 5 6 5 6 6 6 6 4 5 5 5 4 4 3 3 2 2 3 4 4 3 2 2 2 1 -0 -0 -0 0 -1 -2 -2 -2 -2 -2 -2 -2 -1 -2 -1 -1 -0 -0 0 1 0
4 6 6 6 6 6 5 8 7 6 5 6 5 4 4 4 3 3 2 2 1 2 2 2 1 1 1 0 -1 -1 -1 -1 -2 -2 -2 -2 -2 -2 -2 -2 -1 -1 -1 -1 -0 0 1 1 1
6 6 8 7 6 6 6 9 7 5 6 6 5 5 4 4 3 2 2 1 1 0 1 -0 -1 -1 -1 -1 -1 -1 -2 -2 -1 -2 -2 -2 -2 -2 -2 -1 -1 -0 -0 0 1 1 1 1 1
7 9 9 8 6 6 7 8 7 5 6 6 5 5 4 4 3 2 1 1 1 0 0 0 -0 -0 -1 -1 -1 -1 -2 -1 -1 -2 -2 -2 -2 -2 -2 -1 -1 -1 -0 0 1 1 1 1 2
9 9 8 9 7 7 8 8 7 6 6 6 5 5 5 4 4 2 2 1 0 0 0 -0 -0 -0 -1 -1 -1 -1 -1 -1 -1 -1 -1 -2 -2 -1 -1 -1 -1 -0 0 1 1 1 2 1 2
7 8 9 7 6 8 8 7 6 6 6 6 5 5 5 4 3 2 2 1 1 0 0 0 0 -0 -0 0 0 0 0 -0 -1 -1 -1 -2 -2 -1 -2 -1 -1 -0 1 0 1 2 2 3 2
8 9 9 8 7 7 7 7 6 6 6 6 5 5 4 4 3 3 2 1 1 1 0 0 0 0 -0 -0 -0 -0 -0 -0 -1 -1 -1 -2 -2 -1 -1 -1 -0 0 0 1 2 2 2 2 2
8 9 9 9 8 7 8 8 7 6 6 5 5 4 4 4 4 3 3 2 1 1 1 1 0 0 -0 -0 -0 -0 -1 -0 0 -0 -1 1 1 0 -1 0 1 1 1 2 1 2 2 3 3
10 7 8 9 9 11 7 12 8 7 7 7 6 5 5 4 3 3 3 2 2 1 0 0 0 0 -0 -0 0 0 1 2 1 0 -0 -1 -0 0 1 0 1 1 1 1 2 2 3 3 4
9 7 8 8 9 9 9 11 9 7 8 7 6 5 5 4 3 3 3 2 2 1 1 0 0 0 -0 -0 -0 0 1 0 -0 -0 -0 -0 0 1 1 2 2 2 2 1 2 3 4 3 3
6 8 8 8 9 14 10 10 10 8 7 6 5 5 4 4 3 3 2 2 2 1 1 1 1 1 0 -0 -0 0 1 1 1 1 1 0 1 2 2 2 2 2 2 2 3 3 3 4 6
7 9 13 15 15 15 10 11 9 7 6 6 5 4 4 3 3 3 3 3 2 2 1 1 1 1 0 0 0 0 1 0 1 1 1 1 2 4 4 3 2 2 2 3 3 4 4 5 5
8 9 13 18 16 14 11 13 9 6 5 5 5 4 4 3 3 3 3 2 2 2 2 1 2 2 1 1 1 0 0 0 0 0 1 1 3 4 3 3 3 3 4 5 6 6 5 5 5
9 11 8 12 13 14 11 9 7 6 6 5 5 5 5 4 3 3 2 2 2 2 2 1 1 1 1 1 1 1 0 0 0 0 1 3 4 3 3 3 4 5 4 5 6 6 7 7 6
8 7 12 11 17 17 13 12 10 8 7 6 5 5 5 4 4 3 3 2 2 2 1 1 1 1 1 1 0 1 1 0 0 0 3 3 3 3 4 5 5 5 6 6 6 7 7 6 6
9 10 10 10 11 15 15 12 7 7 6 6 5 5 4 4 4 3 3 2 2 1 1 1 1 1 1 1 1 1 1 0 0 1 1 1 1 3 5 4 4 6 7 7 8 7 7 7 7
7 8 9 12 13 12 12 12 6 5 5 5 5 5 4 4 4 3 3 2 2 2 2 2 1 1 1 1 1 1 0 0 1 1 1 1 4 5 5 6 7 6 7 7 8 7 8 8 7